EW5980 Weather Reports


Display with metric or nautical units.
time (UTC)temp
F
wind
direction
speed
MPH
gust
MPH
rain 1hr
in
rain 24hr
in
rain mn
in
humidity
%
barometer
mb
20260904193103 95 0.0 0.0 0.00 0.00 0.00 53 1013.6
20260904191605 96 0.0 0.0 0.00 0.00 0.00 49 1013.6
20260904190053 96 0.0 0.0 0.00 0.00 0.00 50 1014.1
20260904184606 97 0.0 0.0 0.00 0.00 0.00 49 1014.1
20260904183057 97 0.0 0.0 0.00 0.00 0.00 51 1014.6
20260904181554 97 0.0 0.0 0.00 0.00 0.00 51 1014.9
20260904180101 97 0.0 0.0 0.00 0.00 0.00 51 1015.1
20260904174553 97 0.0 0.0 0.00 0.00 0.00 52 1015.2
20260904173056 96 0.0 0.0 0.00 0.00 0.00 53 1015.6
20260904171602 96 0.0 0.0 0.00 0.00 0.00 54 1015.7
20260904170100 96 0.0 0.0 0.00 0.00 0.00 57 1016.0
20260904164559 95 0.0 0.0 0.00 0.00 0.00 61 1016.4
20260904163101 94 0.0 0.0 0.00 0.00 0.00 60 1016.3
20260904161559 93 0.0 0.0 0.00 0.00 0.00 61 1016.4
20260904160057 92 0.0 0.0 0.00 0.00 0.00 63 1016.4
20260904154603 90 0.0 0.0 0.00 0.00 0.00 66 1016.5
20260904153100 90 0.0 0.0 0.00 0.00 0.00 69 1016.7
20260904151559 89 0.0 0.0 0.00 0.00 0.00 71 1016.5
20260904150056 87 0.0 0.0 0.00 0.00 0.00 75 1016.5
20260904144554 85 0.0 0.0 0.00 0.00 0.00 76 1016.3
20260904143102 83 0.0 0.0 0.00 0.00 0.00 60 1016.2
20260904141556 80 0.0 0.0 0.00 0.00 0.00 37 1016.1
20260904140105 78 0.0 0.0 0.00 0.00 0.00 23 1016.0
20260904134604 76 0.0 0.0 0.00 0.00 0.00 21 1015.9
20260904133054 75 0.0 0.0 0.00 0.00 0.00 22 1015.9
20260904131558 75 0.0 0.0 0.00 0.00 0.00 23 1015.9
20260904130057 75 0.0 0.0 0.00 0.00 0.00 23 1016.2
20260904124605 74 0.0 0.0 0.00 0.00 0.00 23 1016.0
20260904123058 74 0.0 0.0 0.00 0.00 0.00 24 1015.8
20260904121554 74 0.0 0.0 0.00 0.00 0.00 24 1015.5
20260904114559 74 0.0 0.0 0.00 0.00 0.00 25 1015.3
20260904113057 74 0.0 0.0 0.00 0.00 0.00 25 1015.1
20260904111552 74 0.0 0.0 0.00 0.00 0.00 25 1015.1
20260904110052 74 0.0 0.0 0.00 0.00 0.00 25 1015.2
20260904104601 74 0.0 0.0 0.00 0.00 0.00 26 1015.1
20260904103058 74 0.0 0.0 0.00 0.00 0.00 26 1015.1
20260904101558 74 0.0 0.0 0.00 0.00 0.00 26 1015.2
20260904100103 74 0.0 0.0 0.00 0.00 0.00 26 1015.1
20260904094558 74 0.0 0.0 0.00 0.00 0.00 26 1015.1
20260904093058 74 0.0 0.0 0.00 0.00 0.00 26 1015.1
20260904091556 74 0.0 0.0 0.00 0.00 0.00 26 1015.1
20260904090054 74 0.0 0.0 0.00 0.00 0.00 27 1014.8
20260904084546 74 0.0 0.0 0.00 0.00 0.00 27 1014.7
20260904083058 74 0.0 0.0 0.00 0.00 0.00 27 1014.7
20260904081554 74 0.0 0.0 0.00 0.00 0.00 27 1014.6
20260904080137 74 0.0 0.0 0.00 0.00 0.00 27 1014.7
20260904074609 74 0.0 0.0 0.00 0.00 0.00 28 1014.6
20260904073058 74 0.0 0.0 0.00 0.00 0.00 29 1014.7
20260904071553 74 0.0 0.0 0.00 0.00 0.00 29 1014.6
20260904070050 74 0.0 0.0 0.00 0.00 0.00 30 1014.8
20260904064546 74 0.0 0.0 0.00 0.00 0.00 30 1014.9
20260904063104 75 0.0 0.0 0.00 0.00 0.00 30 1014.9
20260904061554 75 0.0 0.0 0.00 0.00 0.00 30 1014.9
20260904060105 75 0.0 0.0 0.00 0.00 0.00 29 1014.9
20260904054559 75 0.0 0.0 0.00 0.00 0.00 29 1014.9
20260904053100 75 0.0 0.0 0.00 0.00 0.00 30 1014.9
20260904051602 75 0.0 0.0 0.00 0.00 0.00 31 1014.6
20260904050104 75 0.0 0.0 0.00 0.00 0.00 31 1014.7
20260904044555 75 0.0 0.0 0.00 0.00 0.00 32 1014.4
20260904043054 76 0.0 0.0 0.00 0.00 0.00 32 1014.4
20260904041559 76 0.0 0.0 0.00 0.00 0.00 32 1014.5
20260904040058 76 0.0 0.0 0.00 0.00 0.00 32 1014.5
20260904034555 76 0.0 0.0 0.00 0.00 0.00 33 1014.6
20260904033053 76 0.0 0.0 0.00 0.00 0.00 32 1014.6
20260904031546 77 0.0 0.0 0.00 0.00 0.00 33 1014.4
20260904030058 77 0.0 0.0 0.00 0.00 0.00 33 1014.7
20260904024556 77 0.0 0.0 0.00 0.00 0.00 34 1014.7
20260904023055 77 0.0 0.0 0.00 0.00 0.00 35 1014.7
20260904021558 78 0.0 0.0 0.00 0.00 0.00 37 1014.7
20260904020055 78 0.0 0.0 0.00 0.00 0.00 33 1014.7
20260904014604 78 0.0 0.0 0.00 0.00 0.00 32 1014.6
20260904013057 78 0.0 0.0 0.00 0.00 0.00 30 1014.6
20260904011556 78 0.0 0.0 0.00 0.00 0.00 31 1014.6
20260904010106 79 0.0 0.0 0.00 0.00 0.00 31 1014.5
20260904004548 79 0.0 0.0 0.00 0.00 0.00 32 1014.4
20260904003055 79 0.0 0.0 0.00 0.00 0.00 32 1014.3
20260904001552 79 0.0 0.0 0.00 0.00 0.00 34 1014.3
20260904000057 78 0.0 0.0 0.00 0.00 0.00 35 1014.1
20260903234547 78 0.0 0.0 0.00 0.00 0.00 35 1014.3
20260903233105 78 0.0 0.0 0.00 0.00 0.00 36 1013.9
20260903231554 78 0.0 0.0 0.00 0.00 0.00 38 1013.6
20260903230048 78 0.0 0.0 0.00 0.00 0.00 43 1013.5
20260903224553 78 0.0 0.0 0.00 0.00 0.00 47 1014.0
20260903223052 77 0.0 0.0 0.00 0.00 0.00 57 1014.2
20260903221558 78 0.0 0.0 0.00 0.00 0.00 64 1014.5
20260903220057 78 0.0 0.0 0.00 0.00 0.00 75 1014.5
20260903214556 80 0.0 0.0 0.00 0.00 0.00 79 1015.2
20260903213055 85 0.0 0.0 0.00 0.00 0.00 73 1015.4
20260903211559 87 0.0 0.0 0.00 0.00 0.00 71 1014.1
20260903210114 90 0.0 0.0 0.00 0.00 0.00 65 1013.6
20260903204617 93 0.0 0.0 0.00 0.00 0.00 58 1014.2
20260903203052 93 0.0 0.0 0.00 0.00 0.00 58 1014.1
20260903201600 95 0.0 0.0 0.00 0.00 0.00 56 1014.1
20260903194556 97 0.0 0.0 0.00 0.00 0.00 49 1014.4